Probability
1 0 0 0 1 2 3 3 3 3 3 1 0 0 0 0 0 0 0 0 0 0 0 0 0 0 0 0 0 0 0 0 0 0 0 0 0 0 0 0 0 0 0
2 1 0 0 1 2 3 3 3 3 3 2 0 0 0 0 0 0 0 0 0 0 0 0 0 0 0 0 0 0 0 0 0 0 0 0 0 0 0 0 0 0 0
4 1 0 0 0 1 3 3 3 3 3 1 0 0 0 0 0 0 0 0 0 0 0 0 0 0 0 0 0 0 0 0 0 0 0 0 0 0 0 0 0 0 0
4 2 1 0 0 1 3 4 3 3 3 1 1 0 0 0 0 0 0 0 0 0 0 0 0 0 0 0 0 0 0 0 0 0 0 0 0 0 0 0 0 0 0
4 3 2 1 0 1 2 4 4 3 3 3 2 2 1 1 1 0 0 0 0 0 0 0 0 0 0 0 0 0 0 0 0 0 0 0 0 0 0 0 0 0 0
5 4 2 1 0 0 1 3 4 4 3 3 3 4 4 4 3 2 1 0 0 0 0 0 0 0 0 0 0 0 0 0 0 0 0 0 0 0 0 0 0 0 0
4 3 1 0 0 0 1 2 4 4 4 3 3 4 6 6 5 5 3 1 0 0 0 0 0 1 1 1 1 0 0 0 0 0 0 0 0 0 0 0 0 0 1
3 3 1 0 0 0 1 2 3 4 3 3 3 4 5 6 7 6 5 3 2 0 0 0 0 1 2 2 1 0 0 0 0 0 0 0 0 0 0 0 0 0 1
3 3 2 1 0 0 0 1 2 3 2 2 2 2 3 5 6 5 5 6 4 2 0 0 0 1 1 1 0 0 0 0 0 0 0 0 0 0 0 0 0 0 1
3 3 2 1 0 0 0 0 1 1 1 1 1 1 2 2 3 3 3 5 5 3 1 0 0 0 0 0 0 0 0 0 0 0 0 0 0 0 0 0 0 0 0
3 3 2 1 0 0 0 0 0 0 0 0 0 0 1 2 2 1 1 3 3 2 1 0 0 0 0 0 0 0 0 0 0 0 0 0 0 0 0 0 0 0 0
2 2 2 1 0 0 0 0 0 0 0 0 0 1 2 3 3 2 1 1 1 0 0 0 0 0 0 0 0 0 0 0 0 0 0 0 0 0 0 0 0 0 0
1 1 1 1 0 0 0 0 0 0 0 0 1 1 3 3 3 3 2 1 0 0 0 1 1 0 0 0 0 0 0 0 0 0 0 0 0 0 0 0 0 0 0
0 0 0 0 0 0 0 0 0 0 0 0 1 2 3 3 3 3 2 1 1 1 1 2 1 0 0 0 0 0 0 0 0 0 0 0 0 0 0 0 0 0 0
0 0 0 0 0 0 0 0 0 0 0 0 1 3 3 3 3 3 2 1 0 1 1 2 1 0 0 0 0 0 0 0 0 0 0 0 0 0 0 0 0 0 0
0 0 0 0 0 0 0 0 0 0 0 0 1 2 3 3 3 3 2 1 0 0 1 1 0 0 0 0 0 0 0 0 0 0 0 0 0 0 0 0 0 0 0
0 0 0 0 0 0 0 0 0 0 0 0 0 1 1 2 2 2 1 0 0 0 0 0 0 0 0 0 0 0 0 0 0 0 0 0 0 0 0 0 0 0 0
0 0 0 0 0 0 0 0 0 0 0 0 0 0 0 1 1 1 0 0 0 0 0 0 0 0 0 0 0 0 0 0 0 0 0 0 0 0 0 0 0 0 0
0 0 0 0 0 0 0 0 0 0 0 0 0 0 0 0 0 0 0 0 0 0 0 0 0 0 0 0 0 0 0 0 1 1 1 0 0 0 0 0 0 0 0
0 0 0 0 0 0 0 0 0 0 0 0 0 0 0 0 0 0 0 0 0 0 0 0 0 0 0 0 0 0 0 0 1 2 1 0 0 0 0 0 0 0 0
0 0 0 0 0 0 0 0 0 0 0 0 0 0 0 0 0 0 0 0 0 0 0 0 0 0 0 0 0 0 0 0 0 1 1 0 0 0 0 0 0 0 0
0 0 0 0 0 0 0 0 0 0 0 0 0 0 0 0 0 0 0 0 0 0 0 0 0 0 0 0 0 0 0 0 0 0 0 0 0 0 0 0 0 0 0
0 0 0 0 0 0 0 0 0 0 0 0 0 0 0 0 0 0 0 0 0 0 0 0 0 0 0 0 0 0 0 0 0 0 0 0 0 0 0 0 0 0 0
1 1 1 1 0 0 0 0 0 0 0 0 0 0 0 0 0 0 0 0 0 0 0 0 0 0 0 0 0 0 0 0 0 0 0 0 0 0 0 0 0 0 0
1 2 2 2 1 0 0 0 0 0 0 0 0 0 0 0 0 0 0 0 0 0 0 0 0 0 0 0 0 0 0 0 0 0 0 0 0 0 0 0 0 0 0
0 1 3 3 2 1 0 0 0 0 0 0 0 0 0 0 0 0 0 0 0 0 0 0 0 0 0 0 0 0 0 0 0 0 0 0 0 0 0 0 0 0 0
Wind_Speed
1 0 1 1 5 6 7 7 8 8 8 8 8 8 9 9 9 9 9 9 9 9 9 9 10 10 10 10 11 11 10 10 10 10 10 10 10 10 10 10 8 7 11
1 1 0 0 5 6 7 7 7 7 7 8 8 8 8 9 9 8 9 9 9 9 9 10 10 11 10 10 10 11 11 11 11 10 9 8 10 10 10 10 10 8 10
1 1 2 2 5 6 7 7 7 7 7 7 7 7 8 8 8 8 8 8 8 8 9 10 10 10 10 10 10 10 10 10 10 8 5 6 8 10 11 11 10 10 10
1 1 2 3 5 6 7 7 7 6 6 7 7 7 7 7 7 7 8 7 7 8 8 9 10 10 10 10 10 10 9 9 8 5 4 6 6 9 10 10 10 10 10
2 2 3 4 5 6 6 6 6 6 6 6 7 7 7 7 7 7 7 7 7 7 8 8 9 9 9 9 9 9 8 8 6 4 5 6 6 8 8 9 9 9 9
3 2 4 4 4 5 6 6 6 6 6 6 6 6 6 7 7 7 7 7 7 7 7 7 8 8 8 8 8 8 7 6 3 4 5 5 5 7 7 7 7 7 7
3 3 4 5 5 5 5 5 5 5 5 5 5 5 6 6 6 6 6 7 7 6 6 7 7 7 7 8 7 7 7 5 3 4 4 4 5 7 6 6 6 6 6
3 3 3 4 5 5 5 5 5 5 5 4 4 5 5 5 6 6 6 6 6 6 6 6 6 6 6 6 7 7 6 4 3 3 3 4 6 6 5 5 6 6 5
3 3 3 3 3 4 5 5 5 4 4 4 4 5 5 5 5 6 6 6 6 6 6 6 6 6 6 6 6 6 6 5 2 2 3 3 5 5 5 5 6 6 6
2 2 2 2 3 3 3 5 4 5 4 4 4 4 4 4 4 5 4 5 5 5 6 6 6 5 5 5 5 5 4 2 2 2 2 3 5 4 4 4 5 5 5
2 2 2 2 2 2 2 3 3 4 4 3 3 3 1 1 2 2 4 5 5 5 5 5 5 5 4 4 4 4 2 1 1 1 2 4 3 3 3 4 4 4 4
2 1 1 1 2 1 1 1 1 1 1 1 1 0 0 1 1 1 4 4 4 4 4 4 4 3 2 1 2 1 0 1 1 1 2 4 2 2 3 3 3 4 4
3 2 1 1 1 1 1 1 0 0 1 1 1 1 0 0 1 1 1 1 1 1 1 2 1 1 1 2 1 1 1 1 1 1 3 5 3 2 2 2 3 3 4
3 2 1 1 1 1 1 1 1 1 1 0 0 0 0 0 1 1 0 0 0 0 0 1 1 1 1 1 1 1 1 1 1 1 2 5 4 3 3 3 3 4 4
4 3 2 2 2 2 1 1 1 1 1 1 1 1 1 1 1 1 1 1 0 0 0 0 0 0 1 1 1 1 1 1 1 1 1 3 4 4 3 4 4 5 5
4 3 3 3 3 3 2 2 2 2 2 2 2 2 2 1 1 1 1 1 1 1 1 1 0 1 1 1 1 1 2 2 2 2 2 1 3 4 4 4 5 6 6
4 3 3 3 3 4 4 3 2 2 2 2 2 2 2 2 2 2 2 1 1 1 1 1 0 1 1 1 1 2 2 2 2 2 2 2 2 2 3 5 5 6 7
4 4 4 3 3 4 4 3 3 3 3 2 2 2 2 2 3 2 2 2 1 1 1 1 1 1 1 1 2 2 2 2 2 3 2 2 2 2 2 3 5 6 7
4 4 4 4 4 4 4 3 3 2 2 2 2 2 2 2 2 2 2 1 2 1 1 1 1 1 2 2 2 2 3 2 2 3 3 3 3 3 2 2 4 5 7
3 4 4 4 4 3 2 2 2 2 2 2 2 2 2 2 2 2 2 2 2 2 2 2 2 2 2 2 2 3 3 3 3 3 4 4 3 3 3 4 3 3 5
3 3 4 4 3 2 2 2 2 2 2 2 2 2 2 2 2 3 2 3 3 3 2 2 2 2 2 2 2 3 3 4 4 3 4 4 4 4 4 4 3 4 3
3 4 4 4 3 4 3 3 2 2 2 2 1 2 2 3 3 3 3 3 3 3 3 3 2 2 2 2 2 3 3 4 4 4 3 4 4 4 4 4 5 5 4
3 4 3 4 4 4 4 2 1 1 1 2 2 2 2 3 3 3 4 3 3 4 4 4 4 4 3 3 3 3 3 4 3 3 5 4 4 4 4 4 5 5 6
4 3 3 4 4 4 4 4 4 3 3 3 2 2 2 2 3 3 3 3 3 3 4 4 4 4 4 3 3 3 4 4 4 4 3 3 5 6 5 4 5 5 5
3 3 3 3 4 4 4 5 5 4 3 2 2 2 2 2 2 2 2 2 3 3 3 3 3 4 4 4 3 3 4 4 5 5 5 4 4 4 5 5 4 5 5
3 3 3 3 4 4 4 5 5 5 4 3 3 3 2 2 2 2 2 2 3 3 3 3 3 4 4 4 4 3 4 4 4 5 6 6 5 4 5 4 5 4 4
Wind_Direction
143 79 329 39 98 95 92 89 85 82 82 82 83 82 82 80 77 75 75 73 71 70 71 70 68 67 67 65 61 61 61 60 60 60 60 63 62 61 60 56 55 68 65
151 182 325 138 108 102 97 93 89 85 84 85 83 81 81 80 78 76 74 73 71 71 72 71 70 69 69 67 64 64 63 61 59 57 56 66 64 61 61 58 52 59 61
119 153 180 128 114 108 102 97 93 89 86 86 84 82 81 80 79 79 77 75 73 72 72 72 71 70 70 69 67 67 64 61 57 49 50 61 66 64 64 60 58 60 58
122 137 162 111 115 110 105 101 96 92 88 87 85 83 82 81 77 77 78 76 73 72 73 74 74 71 70 68 68 67 65 61 54 40 57 59 63 64 62 60 58 57 56
117 115 110 89 115 115 112 107 101 95 90 87 86 84 81 81 78 76 75 71 69 70 71 75 76 73 70 69 67 66 65 60 54 53 60 60 63 66 60 59 57 54 52
113 103 97 78 107 117 116 113 106 98 93 88 88 85 82 80 78 75 71 67 64 65 70 74 75 75 73 70 68 66 64 60 63 64 58 57 59 62 60 58 57 54 51
113 100 100 74 81 95 104 111 110 104 97 90 89 84 81 79 76 75 71 67 64 63 65 71 74 75 75 72 69 67 60 46 56 65 60 57 55 55 57 56 53 52 51
115 106 104 83 78 81 84 85 97 101 96 89 86 83 79 74 71 70 68 66 65 63 62 63 69 72 73 73 70 64 53 38 58 57 59 59 53 51 53 50 47 48 45
115 111 110 116 106 89 81 80 81 80 83 84 82 81 75 71 68 62 61 62 63 64 61 60 64 64 68 70 68 61 50 29 43 49 46 50 47 46 47 45 42 40 37
115 112 114 110 115 116 104 81 77 72 66 70 69 68 74 77 74 62 66 66 66 66 63 62 61 60 62 63 59 53 41 22 44 42 41 47 45 44 39 36 34 28 26
120 110 110 105 105 109 109 94 91 83 73 78 75 68 86 123 116 90 66 66 67 65 65 66 65 60 59 64 54 45 32 32 36 26 30 33 43 40 30 27 23 15 15
163 141 127 122 114 110 101 118 123 111 105 98 86 99 206 110 76 74 73 66 65 62 69 66 63 61 41 59 65 47 33 14 1 22 27 18 27 26 14 15 12 4 1
196 174 168 155 150 149 143 152 142 133 124 111 84 19 242 136 131 118 106 104 99 88 81 77 74 48 24 19 10 17 9 332 343 353 18 6 357 1 358 355 351 349 347
211 200 202 189 191 188 180 195 210 197 181 183 144 307 262 193 198 168 161 151 197 42 46 26 30 34 22 18 12 353 345 309 306 320 13 8 350 343 339 336 331 329 331
212 211 218 217 208 209 199 215 223 223 227 219 224 206 227 244 229 216 211 218 245 266 233 8 25 16 6 2 347 334 319 298 284 280 324 21 359 343 328 327 324 316 312
219 220 220 223 217 219 220 218 223 227 230 231 226 215 212 225 234 229 225 226 241 254 264 248 276 280 301 324 321 321 311 289 280 278 282 327 2 346 334 323 319 313 307
221 225 227 225 223 224 227 227 227 224 234 236 232 224 222 224 226 237 231 230 237 248 244 224 254 274 279 292 302 306 301 299 287 281 275 284 293 328 333 330 326 315 311
227 227 229 226 228 230 230 234 235 231 233 239 242 235 232 229 226 232 238 240 241 232 233 227 241 266 279 288 290 292 281 275 284 284 265 265 279 284 297 323 321 320 317
231 229 225 228 227 233 236 236 239 239 237 241 243 248 241 228 226 218 227 249 249 238 231 233 246 265 269 289 291 284 276 271 272 273 264 259 264 274 281 297 302 311 316
240 233 227 232 233 234 233 233 238 239 241 245 249 256 255 235 220 220 210 223 241 244 238 233 243 255 258 280 286 281 268 262 261 265 267 259 258 269 276 290 286 289 306
241 232 227 232 233 227 223 232 241 249 252 250 255 262 260 250 231 224 216 215 222 230 238 237 240 243 248 260 278 283 258 244 249 261 264 262 258 264 272 277 279 286 282
240 236 231 229 229 229 233 236 248 262 270 275 265 257 257 250 238 229 226 222 220 223 222 224 225 252 251 247 270 286 277 247 232 244 255 269 267 265 266 264 270 273 278
242 239 234 228 227 230 227 217 216 234 255 261 259 260 261 261 251 239 235 229 228 231 226 225 224 235 246 245 248 260 270 272 291 240 245 256 263 263 262 262 265 266 269
253 241 231 229 229 226 217 213 219 230 243 259 265 259 266 259 258 250 246 239 236 240 239 234 230 238 240 242 239 249 266 280 270 279 251 249 268 269 267 266 263 264 266
257 249 238 230 231 224 219 220 223 233 242 246 255 260 271 269 263 259 251 243 242 245 248 246 237 234 236 242 238 238 247 257 257 262 277 278 273 268 270 268 266 264 264
259 250 241 233 236 226 221 222 224 228 234 241 253 262 268 271 268 264 257 249 248 248 246 246 242 239 239 243 246 240 240 243 243 248 263 277 284 284 278 266 262 262 261